#timestamp,LO_Frequency,Hit,StdDev 
1668553215.9,286047001.6,N
1668553235.7,286047001.8,N
1668553255.6,286047001.7,N
1668553275.4,286047001.7,N
1668553295.2,286047001.5,N
1668553315.1,286047001.6,N
1668553316.0,286047001.6,N
1668553335.8,286047001.5,N
1668553355.7,286047002.8,Y
1668553375.5,286046998.2,P
1668553395.3,286046998.1,N
1668553415.2,286047001.0,N
1668553435.0,286047000.7,N
1668553435.9,286047000.7,N
1668553455.7,286047000.4,N
1668553475.6,286047001.2,N
1668553495.4,286047001.0,N
1668553515.3,286046998.5,N
1668553535.1,286046999.5,N
1668553536.0,286046999.5,N
1668553555.8,286046996.9,N
1668553575.7,286046999.0,N
1668553595.5,286046997.9,N
1668553615.3,286046995.4,Y
1668553635.2,286046996.8,P
1668553655.0,286046999.4,N
1668553655.9,286046999.4,N
1668553675.8,286046997.0,N
1668553695.6,286046998.2,N
1668553715.4,286046998.1,N
1668553735.3,286046999.9,N
1668553755.1,286047001.0,N
1668553775.9,286046998.3,N
1668553795.7,286047000.8,N
1668553815.5,286047000.8,N
1668553835.4,286047000.4,N
1668553855.2,286047000.6,N
1668553875.0,286046999.2,N
1668553875.9,286046999.2,N
1668553895.8,286046996.7,N
1668553915.6,286046999.4,N
1668553935.5,286046998.5,N
1668553955.3,286047000.5,N
1668553975.1,286047001.2,N
1668553995.9,286047001.2,N
1668554015.7,286046998.3,N
1668554035.6,286046998.8,N
1668554055.4,286046995.3,Y
1668554075.2,286046997.4,P
1668554095.1,286046999.3,N
1668554096.0,286046999.3,N
1668554115.8,286046999.4,N
1668554135.6,286047001.0,N
1668554155.5,286047000.5,N
1668554175.3,286047001.1,N
1668554195.2,286046999.1,N
1668554215.9,286046999.2,N
1668554235.7,286046998.9,N
1668554255.6,286046999.3,N
1668554275.4,286046998.5,N
1668554295.3,286046998.8,N
1668554315.1,286046999.1,N
1668554316.0,286046999.1,N
1668554335.8,286046998.5,N
1668554355.7,286047001.0,N
1668554375.5,286047000.4,N
1668554395.3,286046999.3,N
1668554415.2,286046996.5,Y
1668554435.0,286046999.0,P
1668554435.9,286046999.0,P
1668554455.8,286046999.6,N
1668554475.6,286046996.7,Y
1668554495.4,286046998.1,P
1668554515.3,286046999.0,N
1668554535.1,286046998.8,N
1668554555.9,286047000.3,N
1668554575.7,286047002.6,Y
1668554595.6,286047003.2,P
1668554615.4,286047003.4,N
1668554635.2,286047005.6,N
1668554655.1,286047004.4,N
1668554656.0,286047004.4,N
1668554675.8,286047001.4,N
1668554695.6,286047003.8,N
1668554715.8,286047002.9,N
1668554735.7,286047004.2,N
1668554755.5,286047004.2,N
1668554775.3,286047005.6,Y
1668554795.2,286047000.1,P
1668554815.0,286046999.8,N
1668554815.9,286046999.8,N
1668554835.8,286047000.2,N
1668554855.6,286047000.9,N
1668554875.4,286047000.3,N
1668554895.3,286047002.7,N
1668554915.1,286047002.7,N
1668554935.8,286046999.7,N
1668554955.7,286047000.4,N
1668554975.5,286047000.8,N
1668554995.4,286046999.2,N
1668555015.2,286047000.8,N
1668555035.0,286046998.6,N
1668555035.9,286046998.6,N
1668555055.8,286047000.3,N
1668555075.6,286047000.1,N
1668555095.5,286047002.5,N
1668555115.3,286047004.4,Y
1668555135.1,286046999.7,P
1668555155.9,286047002.4,P
1668555175.7,286047002.8,N
1668555195.5,286047001.8,N
1668555215.4,286047002.3,N
1668555235.2,286047002.1,N
1668555255.1,286046999.7,N
1668555256.0,286046999.7,N
1668555275.8,286047000.5,N
1668555295.6,286046999.8,N
1668555315.5,286046999.8,N
1668555335.3,286047002.1,N
1668555355.1,286047004.0,Y
1668555375.9,286047001.3,P
1668555395.7,286046998.7,P
1668555415.6,286046999.6,N
1668555435.4,286046999.0,N
1668555455.2,286046997.5,N
1668555475.1,286046999.4,N
1668555476.0,286046999.4,N
1668555495.8,286046997.7,N
1668555515.6,286046999.2,N
1668555535.5,286046998.6,N
1668555555.3,286046999.4,N
1668555575.2,286046997.1,N
1668555595.0,286046997.8,N
1668555595.9,286046997.8,N
1668555615.8,286046997.9,N
1668555635.6,286046996.7,N
1668555655.4,286046997.7,N
1668555675.3,286046997.1,N
1668555695.1,286046997.0,N
1668555715.8,286046999.5,N
1668555735.7,286046998.6,N
1668555755.5,286046998.3,N
1668555775.4,286046998.4,N
1668555795.2,286046998.9,N
1668555815.0,286046998.3,N
1668555815.9,286046998.3,N
1668555835.8,286047000.9,N
1668555855.6,286046998.2,N
1668555875.4,286047002.8,N
1668555895.3,286047000.1,N
1668555915.1,286046998.1,N
1668555935.9,286046996.8,N
1668555955.7,286046996.6,N
1668555975.5,286046997.7,N
1668555995.4,286046998.9,N
1668556015.2,286046998.3,N
1668556035.0,286047000.5,N
1668556035.9,286047000.5,N
1668556055.8,286047000.0,N
1668556075.6,286046998.4,N
1668556095.5,286047001.2,N
1668556115.3,286046998.3,N
1668556135.1,286046998.2,N
1668556155.9,286046998.1,N
1668556175.7,286047000.7,N
1668556195.5,286046999.7,N
1668556215.4,286046998.4,N
1668556235.2,286046998.4,N
1668556255.1,286046998.7,N
1668556256.0,286046998.7,N
1668556275.8,286046997.9,N
1668556295.6,286046997.3,N
1668556315.5,286046999.6,N
1668556335.3,286046998.3,N
1668556355.2,286046998.9,N
1668556375.9,286046997.0,N
1668556395.7,286046995.0,Y
1668556415.6,286046995.4,P
1668556435.4,286046998.9,N
1668556455.3,286047001.0,N
1668556475.1,286046994.9,N
1668556476.0,286046994.9,N
1668556495.8,286046995.0,N
1668556515.7,286046997.1,N
1668556535.5,286046998.8,N
1668556555.3,286047000.3,N
1668556575.2,286047001.2,N
1668556595.0,286046998.3,N
1668556595.9,286046998.3,N
1668556615.8,286046998.2,N
1668556635.6,286047000.2,N
1668556655.4,286046998.1,N
1668556675.3,286046998.9,N
1668556695.1,286046998.6,N
1668556715.9,286046998.6,N
1668556735.7,286047001.2,N
1668556755.5,286046998.6,N
1668556775.4,286047001.2,N
1668556795.2,286047000.6,N
